Greenville Downtown, SC

8:40 PM EDT on July 21, 2017 (GMT -0400)
Greenville Downtown

Weather History for KGMU - March, 2013

Change the Weather History Date:

Tuesday, March 19, 2013

  Actual Average Record
Temperature  
Mean Temperature 55 °F -  
Max Temperature 69 °F 61 °F 84 °F (2012)
Min Temperature 42 °F 41 °F 26 °F (1993)
Degree Days  
Heating Degree Days 10    
Growing Degree Days 5 (Base 50)    
Moisture  
Dew Point 34 °F    
Average Humidity 67    
Maximum Humidity 100    
Minimum Humidity 12    
Precipitation  
Precipitation 0.00 in - - ()
Sea Level Pressure  
Sea Level Pressure 29.94 in    
Wind  
Wind Speed 5 mph (WNW)    
Max Wind Speed 21 mph    
Max Gust Speed 29 mph    
Visibility 5 miles    
Events Fog    
Averages and records for this station are not official NWS values.
T = Trace of Precipitation, MM = Missing Value Source: NWS Daily Summary

Daily Weather History Graph

Daily Weather History Graph

Search for Another Location

Airport or City:

Trip Planner

Search our weather history database for the weather conditions in past years. The results will help you decide how hot, cold, wet, or windy it might be!

Date:

Astronomy

Mar. 19, 2013 Rise Set
Actual Time 7:34 AM EDT 7:40 PM EDT
Civil Twilight 7:08 AM EDT 8:05 PM EDT
Nautical Twilight 6:39 AM EDT 8:35 PM EDT
Astronomical Twilight 6:09 AM EDT 9:04 PM EDT
Moon 12:36 PM EDT (3/19) 2:13 AM EDT (3/19)
Length of Visible Light 12h 56m
Length of Day
12h 06m
Waxing Crescent, 49% of the Moon is Illuminated
Mar 19
Waxing Crescent
Mar 19
First Quarter
Mar 27
Full
Apr 3
Last Quarter
Apr 10
New

Hourly Weather History & Observations

Time (EDT) Temp. Windchill Dew Point Humidity Pressure Visibility Wind Dir Wind Speed Gust Speed Precip Events Conditions
12:14 AM 42.8 °F 41.1 °F 41.0 °F 93% 29.90 in 0.8 mi North 3.5 mph - N/A   Mist
12:53 AM 42.1 °F - 39.9 °F 92% 29.91 in 0.5 mi Calm Calm - N/A Fog Fog
1:36 AM 42.8 °F 40.1 °F 41.0 °F 93% 29.90 in 1.2 mi NW 4.6 mph - N/A   Overcast
1:42 AM 42.8 °F 41.1 °F 41.0 °F 93% 29.90 in 3.0 mi NW 3.5 mph - N/A   Overcast
1:53 AM 42.1 °F 40.2 °F 41.0 °F 96% 29.91 in 4.0 mi WNW 3.5 mph - N/A   Overcast
2:29 AM 42.8 °F 40.1 °F 42.8 °F 100% 29.90 in 1.8 mi WSW 4.6 mph - N/A   Overcast
2:41 AM 42.8 °F 40.1 °F 42.8 °F 100% 29.90 in 0.5 mi WSW 4.6 mph - N/A Fog Fog
2:53 AM 43.0 °F 40.3 °F 42.1 °F 97% 29.91 in 1.0 mi SW 4.6 mph - N/A   Mist
3:24 AM 42.8 °F 40.1 °F 42.8 °F 100% 29.88 in 0.8 mi West 4.6 mph - N/A   Mist
3:53 AM 43.0 °F 40.3 °F 42.1 °F 97% 29.89 in 0.5 mi West 4.6 mph - N/A Fog Fog
4:41 AM 42.8 °F 39.3 °F 41.0 °F 93% 29.86 in 0.2 mi West 5.8 mph - N/A Fog Fog
4:53 AM 42.1 °F 38.4 °F 41.0 °F 96% 29.88 in 0.5 mi West 5.8 mph - N/A Fog Fog
5:09 AM 42.8 °F 38.6 °F 41.0 °F 93% 29.87 in 2.5 mi West 6.9 mph - N/A   Overcast
5:16 AM 42.8 °F 39.3 °F 41.0 °F 93% 29.86 in 4.0 mi WSW 5.8 mph - N/A   Overcast
5:30 AM 42.8 °F 39.3 °F 41.0 °F 93% 29.88 in 1.8 mi West 5.8 mph - N/A   Overcast
5:53 AM 43.0 °F 39.5 °F 42.1 °F 97% 29.89 in 2.0 mi West 5.8 mph - N/A   Overcast
6:15 AM 42.8 °F 38.6 °F 41.0 °F 93% 29.88 in 4.0 mi West 6.9 mph - N/A   Overcast
6:36 AM 42.8 °F 38.6 °F 41.0 °F 93% 29.89 in 1.8 mi West 6.9 mph - N/A   Overcast
6:53 AM 43.0 °F 38.8 °F 41.0 °F 93% 29.90 in 0.5 mi WSW 6.9 mph - N/A Fog Fog
7:53 AM 43.0 °F 38.2 °F 42.1 °F 97% 29.94 in 1.0 mi NNW 8.1 mph - N/A   Mist
8:19 AM 44.6 °F 43.1 °F 42.8 °F 93% 29.93 in 7.0 mi WNW 3.5 mph - N/A   Overcast
8:53 AM 44.1 °F - 42.1 °F 93% 29.97 in 10.0 mi Calm Calm - N/A   Partly Cloudy
9:53 AM 50.0 °F - 45.0 °F 83% 29.98 in 10.0 mi Calm Calm - N/A   Clear
10:53 AM 55.9 °F - 36.0 °F 47% 29.97 in 10.0 mi NW 3.5 mph - N/A   Clear
11:53 AM 61.0 °F - 32.0 °F 34% 29.98 in 10.0 mi NNW 5.8 mph - N/A   Clear
12:53 PM 62.1 °F - 35.1 °F 37% 29.99 in 10.0 mi West 5.8 mph - N/A   Clear
1:53 PM 64.9 °F - 16.0 °F 15% 29.97 in 10.0 mi West 10.4 mph - N/A   Clear
2:53 PM 66.9 °F - 17.1 °F 15% 29.95 in 10.0 mi West 10.4 mph 17.3 mph N/A   Clear
3:53 PM 68.0 °F - 17.1 °F 14% 29.94 in 10.0 mi WSW 13.8 mph - N/A   Clear
4:53 PM 68.0 °F - 14.0 °F 12% 29.94 in 10.0 mi West 20.7 mph 28.8 mph N/A   Clear
5:53 PM 66.0 °F - 16.0 °F 15% 29.96 in 10.0 mi West 12.7 mph 25.3 mph N/A   Clear
6:53 PM 63.0 °F - 16.0 °F 16% 29.98 in 10.0 mi West 11.5 mph - N/A   Clear
7:53 PM 60.1 °F - 17.1 °F 19% 30.01 in 10.0 mi WNW 6.9 mph - N/A   Clear
8:53 PM 57.0 °F - 16.0 °F 20% 30.03 in 10.0 mi NW 4.6 mph - N/A   Clear
9:53 PM 53.1 °F - 19.0 °F 26% 30.05 in 10.0 mi North 5.8 mph - N/A   Clear
10:53 PM 51.1 °F - 19.0 °F 28% 30.06 in 10.0 mi North 4.6 mph - N/A   Clear
11:53 PM 50.0 °F - 15.1 °F 25% 30.06 in 10.0 mi North 6.9 mph - N/A   Clear